Regional Weather Roundup
Issued by NWS Sterling, VA

Home | Current Version | Previous Version | Graphics & Text | Print | Product List | Glossary On
Versions: 1 2 3 4 5 6 7 8 9 10 11 12 13 14 15 16 17 18 19 20 21 22 23 24 25 26 27 28 29 30 31 32 33 34 35 36 37 38 39 40 41 42 43 44 45 46 47 48 49
000
ASUS41 KLWX 281610
RWRLWX

REGIONAL WEATHER ROUNDUP
NATIONAL WEATHER SERVICE BALTIMORE MD/WASHINGTON DC
1100 AM EST SAT FEB 28 2015

Note: "FAIR" indicates few or no clouds below 12,000 feet
with no significant weather and/or obstructions to visibility.
 TC=TEMPERATURE CELSIUS

 * =Non NWS site. Station does not report precipitation (e.g. rain,
    snow, etc.), thunder, or fog.

DCZ001-MDZ009-015-VAZ040>042-051-053>054-281700-
WASHINGTON METRO

CITY           SKY/WX    TMP DP  RH WIND       PRES   REMARKS
WASHINGTON NAT PTSUNNY   26   1  34 NE3       30.88S
DULLES         PTSUNNY   22  -3  33 N5        30.86F
ANDREWS AFB    PTSUNNY   24   0  36 VRB2      30.84F
FT BELVOIR     MOSUNNY   25   1  34 VRB3      30.87F
QUANTICO       MOSUNNY   25   3  38 E7        30.89F
COLLEGE PARK*  PTSUNNY   23   0  36 N3        30.87F
LEESBURG*      MOSUNNY   25   3  39 CALM      30.86F
MANASSAS*      SUNNY     23   3  42 N3        30.87F
GAITHERSBURG*  SUNNY     19   0  42 CALM      30.87F

$$

MDZ006>007-011-014-281700-
BALTIMORE METRO

CITY           SKY/WX    TMP DP  RH WIND       PRES   REMARKS
BWI AIRPORT    PTSUNNY   23  -3  32 CALM      30.86S
MD SCIENCE CTR   N/A     23  -1  35 MISG      30.87F
MARTIN STATE   MOSUNNY   23   0  36 CALM      30.89R
ANNAPOLIS      CLOUDY    23   0  36 CALM      30.88R
FORT MEADE*    PTSUNNY   23   1  39 SW3       30.89S

$$

MDZ012-015-019>023-281700-
MARYLAND EASTERN SHORE

CITY           SKY/WX    TMP DP  RH WIND       PRES   REMARKS
OCEAN CITY     MOSUNNY   25   9  50 NE12      30.85R WCI  14
SALISBURY      PTSUNNY   28   7  41 VRB3      30.84R
CAMBRIDGE*     CLOUDY    27   5  39 N6        30.85S

$$

MDZ017>025-281700-
SOUTHERN MARYLAND

CITY           SKY/WX    TMP DP  RH WIND       PRES   REMARKS
PATUXENT RIVER CLOUDY    23   5  46 NE9       30.87R WCI  13
ST INIGOES     PTSUNNY   26   4  38 VRB5      30.86S
LEONARDTOWN*   PTSUNNY   27   7  43 NE3       30.87S

$$

MDZ003>005-281700-
NORTH CENTRAL MARYLAND

CITY           SKY/WX    TMP DP  RH WIND       PRES   REMARKS
FREDERICK*     SUNNY     25  -9  22 CALM      30.89S
HAGERSTOWN APT SUNNY     20   0  41 W5        30.81F
WESTMINSTER*   SUNNY     18  -2  41 CALM      30.81R

$$

MDZ501>502-281700-
WESTERN MARYLAND

CITY           SKY/WX    TMP DP  RH WIND       PRES   REMARKS
OAKLAND*       SUNNY     18  -9  29 SE9       30.56S WCI   6
CUMBERLAND*    SUNNY     23   1  39 W3        30.83F

$$

VAZ025>031-281700-
SHENANDOAH VALLEY

CITY           SKY/WX    TMP DP  RH WIND       PRES   REMARKS
WINCHESTER*    SUNNY     27  -4  26 CALM      30.81F
FRONT ROYAL*   FAIR      21   1  42 CALM      30.80F
LURAY*         FAIR      28   7  40 CALM      30.79S
NEW MARKET*    FAIR      20   4  49 CALM      30.79S
STAUNTON*      SUNNY     21   3  46 CALM      30.79R
WAYNESBORO*    FAIR      19   5  54 NW3       30.73F

$$

WVZ021-048>050-054>055-281700-
EASTERN WEST VIRGINIA PANHANDLE

CITY           SKY/WX    TMP DP  RH WIND       PRES   REMARKS
MARTINSBURG    SUNNY     24   1  36 NE3       30.82F
PETERSBURG*    NOT AVBL

$$

VAZ036>039-050-281700-
CENTRAL FOOTHILLS

CITY           SKY/WX    TMP DP  RH WIND       PRES   REMARKS
CHARLOTTESVILL MOSUNNY   23   2  40 CALM      30.81F
CULPEPER*      FAIR      25   1  36 N7        30.84F
ORANGE*        SUNNY     25   5  42 NE5       30.85S
GORDONSVILLE*  FAIR      22   1  41 NE6       30.83F
WARRENTON*     FAIR      26   7  44 NE3       30.85S

$$

VAZ055>057-281700-
NORTH AND CENTRAL PIEDMONT

CITY           SKY/WX    TMP DP  RH WIND       PRES   REMARKS
FREDERICKSBRG* MOSUNNY   27   2  34 N3        30.86F
STAFFORD*      SUNNY     24  -4  29 N3        30.90S

$$

NCZ024-NYZ072-PAZ021-071-VAZ022-071-281700-
OTHER REGIONAL OBSERVATIONS

CITY           SKY/WX    TMP DP  RH WIND       PRES   REMARKS
NEW YORK CITY  SUNNY     20  -2  38 VRB3      30.83S
PHILADELPHIA   PTSUNNY   24  -2  32 N6        30.86S
PITTSBURGH     MOSUNNY   16   2  54 E7        30.75S
ROANOKE        PTSUNNY   24   9  52 SE7       30.77S
RICHMOND       CLOUDY    29   5  36 N6        30.84F
RALEIGH        PTSUNNY   29  11  47 E8        30.77F WCI  21

$$

ANZ530>537-281700-
MARINE OBSERVATIONS

STATION/POSITION TIME  TEMP    WIND        PRES
                       AIR SEA DIR/SP/G
                 (UTC) (F)     (DEG/KT/KT) (MB)
THOMAS PT LIGHT  1600   20 31   10/  7/ 10 1046.6R
BALT KEY BRIDGE  1500   19     350/  4/  6 1045.4R
COVE POINT       1500   20      30/  9/ 11 1045.1R
LEWISETTA        1500   23 31   20/  3/  6 1044.8R
SOLOMONS ISLAND  1500      32                N/A

$$




USA.gov is the U.S. government's official web portal to all federal, state and local government web resources and services.